星链-31045 (STARLINK-31045 )

导读

STARLINK-31045是美国SpaceX公司星链(Starlink)星座中的一颗低轨通信卫星,于2023年12月8日发射入轨。作为全球最大卫星互联网星座的组成部分,它采用平板设计搭配太阳电池阵,以氪为工质的霍尔推进器实现轨道机动与离轨,搭载Ku/Ka波段通信载荷与光学星间链路,为全球用户提供高速宽带互联网服务,设计使用寿命约5-7年,退役后会主动脱轨再入大气层烧毁。

基本信息
目录编号:
58541
目录名称:
STARLINK-31045
国际标识:
2023-192L
轨道中心:
EARTH
卫星名称:
星链-31045
卫星全名:
星链-31045 (STARLINK-31045 )
卫星状态:
在轨 (已飞行923 天)
发射日期:
2023-12-08 UTC
国别 :
美国 (US)
星等 :
--
轨道信息
数据来源 国际轨道数据
星历时间: 2026-06-18T05:10:17+0800
10小时前
查看轨道信息
半长轴: 6853.427km
偏心率: 0.0001053
轨道倾角: 53.161°
近地点辐角 80.400°
升交点赤经 34.199°
平近点角 279.712°
近地点: 474.568km
远地点: 476.012km
周期: 94.107分钟
每日圈数: 15.301751
详细信息
固有亮度:
5
最大亮度:
0.3
卫星平台:
Starlink v2.0 mini
覆盖范围:
全球
运营商:
太空探索技术公司
运营商所在国:
美国
制造商(研发单位):
太空探索技术公司
制造商所在国:
美国
使用方式:
暂无
卫星简介
星链(Starlink)计划是由太空探索技术公司(SpaceX)提出的一个巨型低轨卫星互联网星座项目,计划在2019年至2024年间在太空搭建由约1.2万颗卫星组成的“星链”网络,其中1584颗将部署在地球上空550千米处的近地轨道,并从2020年开始工作。该卫星仍在工作。
2D轨道图
3D轨道图
轨道高度分析图
轨道倾角分析图
轨道综合分析图
查看轨道综合分析图